Regional Weather Roundup
Issued by NWS

Home | Current Version | Previous Version | Graphics & Text | Print | Product List | Glossary On
Versions: 1 2 3 4 5 6 7 8 9 10 11 12 13 14 15 16 17 18 19 20 21 22 23 24 25 26 27 28 29 30 31 32 33 34 35 36 37 38 39 40 41 42 43 44 45 46 47 48 49 50
000
ASUS43 KFSD 200802
RWRSD

WEATHER ROUNDUP FOR SOUTH DAKOTA
NATIONAL WEATHER SERVICE SIOUX FALLS SD
200 AM CST FRI JAN 20 2017

NOTE: "FAIR" INDICATES FEW OR NO CLOUDS BELOW 12,000 FEET WITH NO
SIGNIFICANT WEATHER AND/OR OBSTRUCTIONS TO VISIBILITY.


SDZ001>005-009-010-012>017-200900-
NORTHWEST AND NORTH CENTRAL SOUTH DAKOTA

CITY           SKY/WX    TMP DP  RH WIND       PRES   REMARKS
BUFFALO          N/A     24  18  77 W16       29.33F WCI  11
FAITH            N/A     17  15  92 NW7       29.39S WCI   8
MOBRIDGE       FOG       23  20  88 CALM      29.41F VSB 1/2
$$

SDZ012>016-024>037-041>051-057-063-072>074-200900-
SOUTHWEST AND SOUTH CENTRAL SOUTH DAKOTA

CITY           SKY/WX    TMP DP  RH WIND       PRES   REMARKS
RAPID CTY ARPT CLOUDY    28  19  69 NW8       29.40S WCI  20
PIERRE         FOG       22  20  92 W3        29.43S VSB 1/4
CUSTER         CLOUDY    27  18  69 VRB3      29.40F
ELLSWORTH AFB  CLOUDY    27  19  74 NW3       29.39S
PHILIP         CLOUDY    17  15  92 W9        29.42R WCI   6
PINE RIDGE     CLOUDY    24  20  84 W8        29.43F WCI  15
SPEARFISH      FAIR      34  23  64 W10       29.43S WCI  26
WINNER         FAIR      35  32  88 S10       29.43F WCI  27
$$

SDZ004>011-016>023-039-040-200900-
NORTHEAST SOUTH DAKOTA

CITY           SKY/WX    TMP DP  RH WIND       PRES   REMARKS
ABERDEEN       CLOUDY    34  32  92 SE12      29.49F FOG     WCI  25
WATERTOWN      CLOUDY    34  34 100 S13       29.52S FOG     WCI  25
BROOKINGS      FOG       35  34  96 S9        29.53F VSB 1/2 WCI  28
SISSETON         N/A     34  34 100 S10       29.53F WCI  26
$$

SDZ017-020-022-023-036>040-048>070-200900-
SOUTHEAST SOUTH DAKOTA

CITY           SKY/WX    TMP DP  RH WIND       PRES   REMARKS
SIOUX FALLS    CLOUDY    37  37 100 S9        29.56F FOG
HURON          CLOUDY    37  37 100 S12       29.49F
CHAMBERLAIN    CLOUDY    38  37  96 S8        29.46S
MITCHELL       CLOUDY    38  38 100 SE13      29.50F
YANKTON        CLOUDY    37  36  93 SE9       29.54F
$$

ABBREVIATIONS USED IN REMARKS
   TC - TEMPERATURE IN CELSIUS
  WCI - WIND CHILL INDEX
   HX - HEAT INDEX
  VSB - VISIBILITY




USA.gov is the U.S. government's official web portal to all federal, state and local government web resources and services.